Home > Weather > Basel > Past weeks

Flag for Switzerland Weather for the Past 2 Weeks in Basel, Basel-Stadt, Switzerland

Now
41 °F

Rain. Overcast.


Feels Like: 37 °F
Forecast: 36 / 43 °F
Wind: 7 mph from Southwest

Location: Bale-Mulhouse

Current Time: Feb 14, 2016 at 11:10:49 AM

Latest Report: Feb 14, 2016 at 10:00 AM


Visibility: 5 mi

Pressure: 29.21 "Hg

Humidity: 92%

Dew point: 39 °F

Location of BaselLocation

Historic Weather in Basel — Graph

°F

Basel Temperature Yesterday

Maximum temperature yesterday: 50 °F (at 3:00 PM)
Minimum temperature yesterday: 38 °F (at 1:00 AM)
Average temperature yesterday: 44 °F

High & Low Weather Summary for the Past Weeks

 TemperatureHumidityPressure
High57 °F (Feb 6, 4:00 PM)98% (Feb 13, 4:00 AM)30.50 "Hg (Feb 13, 4:00 AM)
Low32 °F (Feb 11, 2:00 AM)48% (Feb 11, 4:00 PM)29.15 "Hg (Feb 13, 8:00 PM)
Average44 °F80%29.91 "Hg
* Reported Jan 30 10:00 AM — Feb 14 10:00 AM, Basel, Weather by CustomWeather, © 2016

Note: Actual official high and low records may vary slightly from our data, if they occured in-between our weather recording intervals... More about our weather records

Advertising

Basel Weather History for the Previous 24 Hours

 ConditionsComfort  
Time TempWeatherWind HumidityBarometerVisibility
10:00 AM
Sun, Feb 14
41 °FRain. Overcast.7 mph92%29.21 "Hg5 mi
9:00 AM42 °FLight rain. Overcast.3 mph93%29.18 "Hg5 mi
8:00 AM43 °FLight rain. Overcast.2 mph87%29.18 "Hg7 mi
7:00 AM45 °FOvercast.3 mph79%29.18 "Hg19 mi
6:00 AM45 °FOvercast.6 mph77%29.21 "Hg19 mi
5:00 AM45 °FLight rain. Overcast.1 mph76%29.21 "Hg12 mi
4:00 AM46 °FOvercast.2 mph74%29.21 "Hg37 mi
2:00 AM47 °FPassing clouds.13 mph71%29.23 "Hg31 mi
1:00 AM48 °FCool.21 mph67%29.21 "Hg37 mi
10:00 PM
Sat, Feb 13
48 °FOvercast.25 mph71%29.18 "Hg11 mi
9:00 PM47 °FSprinkles. Overcast.17 mph77%29.18 "Hg5 mi
8:00 PM49 °FOvercast.20 mph69%29.15 "Hg11 mi
7:00 PM48 °FLight rain. Overcast.14 mph73%29.18 "Hg19 mi
6:00 PM46 °FOvercast.8 mph74%29.18 "Hg25 mi
5:00 PM46 °FOvercast.14 mph77%29.21 "Hg25 mi
4:00 PM47 °FRain. Overcast.9 mph84%29.18 "Hg2 mi
3:00 PM50 °FOvercast.6 mph70%29.18 "Hg6 mi
1:00 PM47 °FOvercast.7 mph74%29.23 "Hg12 mi
12:00 PM45 °FOvercast.6 mph85%29.29 "Hg12 mi
11:00 AM43 °FOvercast.5 mph88%29.32 "Hg12 mi
Weather by CustomWeather, © 2016

See weather overviewHow to use our weather pages